N172TL KPDX-KPDX

Flight info

Callsign N172TL
Flight time 0h 14m
Altitude 3500
Route VFR
Aircraft C172/L-DOV/C

Departure

Time 2026-05-08 02:15
Airport Portland International Airport (KPDX)

Arrival

Time 2026-05-08 02:30
Airport Portland International Airport (KPDX)
Time Latitude Longitude Altitude Speed Heading
2026-05-08 01:57 45.58348 -122.59973 27 ft 0 kts
2026-05-08 01:59 45.58368 -122.59949 28 ft 0 kts 52°
2026-05-08 01:59 45.58369 -122.59947 28 ft 3 kts 53°
2026-05-08 01:59 45.58377 -122.59936 28 ft 0 kts 40°
2026-05-08 02:02 45.58380 -122.59932 25 ft 0 kts 26°
2026-05-08 02:04 45.58408 -122.59923 29 ft 0 kts 11°
2026-05-08 02:05 45.58412 -122.59922 29 ft 4 kts 13°
2026-05-08 02:05 45.58430 -122.59912 29 ft 0 kts 25°
2026-05-08 02:06 45.58463 -122.59891 29 ft 12 kts 24°
2026-05-08 02:06 45.58539 -122.59965 30 ft 15 kts 299°
2026-05-08 02:06 45.58574 -122.60056 31 ft 0 kts 297°
2026-05-08 02:11 45.58593 -122.60096 30 ft 8 kts 318°
2026-05-08 02:11 45.58598 -122.60101 30 ft 0 kts 319°
2026-05-08 02:11 45.58623 -122.60112 29 ft 6 kts
2026-05-08 02:12 45.58625 -122.60111 29 ft 0 kts 11°
2026-05-08 02:12 45.58626 -122.60111 29 ft 0 kts 18°
2026-05-08 02:12 45.58630 -122.60108 29 ft 5 kts 31°
2026-05-08 02:12 45.58693 -122.60075 29 ft 12 kts 343°
2026-05-08 02:13 45.58706 -122.60084 29 ft 0 kts 304°
2026-05-08 02:13 45.58757 -122.60203 28 ft 38 kts 298°
2026-05-08 02:14 45.58950 -122.60688 45 ft 68 kts 300°
2026-05-08 02:14 45.59203 -122.61291 142 ft 73 kts 298°
2026-05-08 02:14 45.59452 -122.61951 234 ft 77 kts 301°
2026-05-08 02:14 45.59707 -122.62607 367 ft 74 kts 300°
2026-05-08 02:15 45.59958 -122.63282 425 ft 84 kts 297°
2026-05-08 02:15 45.60344 -122.63981 452 ft 93 kts 310°
2026-05-08 02:15 45.60738 -122.64709 577 ft 92 kts 304°
2026-05-08 02:15 45.61087 -122.65473 725 ft 93 kts 301°
2026-05-08 02:16 45.61362 -122.66264 922 ft 86 kts 292°
2026-05-08 02:16 45.61193 -122.66945 1063 ft 89 kts 192°
2026-05-08 02:16 45.60531 -122.66945 1130 ft 100 kts 178°
2026-05-08 02:16 45.59814 -122.66896 1308 ft 105 kts 181°
2026-05-08 02:17 45.59083 -122.67061 1483 ft 108 kts 204°
2026-05-08 02:17 45.58357 -122.67336 1666 ft 109 kts 173°
2026-05-08 02:17 45.57820 -122.66654 1821 ft 111 kts 112°
2026-05-08 02:17 45.57435 -122.65656 1937 ft 116 kts 116°
2026-05-08 02:18 45.57047 -122.64653 2059 ft 113 kts 118°
2026-05-08 02:18 45.56667 -122.63679 2160 ft 112 kts 116°
2026-05-08 02:18 45.56320 -122.62707 2287 ft 109 kts 114°
2026-05-08 02:18 45.55983 -122.61754 2410 ft 107 kts 116°
2026-05-08 02:19 45.55641 -122.60823 2521 ft 105 kts 118°
2026-05-08 02:19 45.55260 -122.59930 2634 ft 105 kts 119°
2026-05-08 02:19 45.54900 -122.59027 2745 ft 106 kts 118°
2026-05-08 02:19 45.54526 -122.58121 2805 ft 112 kts 126°
2026-05-08 02:20 45.53967 -122.57273 2756 ft 119 kts 134°
2026-05-08 02:20 45.53516 -122.56387 2960 ft 106 kts 103°
2026-05-08 02:20 45.53595 -122.55390 3092 ft 104 kts 68°
2026-05-08 02:20 45.54036 -122.54549 3105 ft 111 kts 38°
2026-05-08 02:21 45.54640 -122.53870 3172 ft 109 kts 37°
2026-05-08 02:21 45.55264 -122.53206 3175 ft 114 kts 32°
2026-05-08 02:21 45.55939 -122.52659 3231 ft 99 kts 342°
2026-05-08 02:21 45.56392 -122.53230 2920 ft 104 kts 290°
2026-05-08 02:22 45.56646 -122.54292 2367 ft 120 kts 290°
2026-05-08 02:22 45.56973 -122.55404 1730 ft 123 kts 294°
2026-05-08 02:22 45.57340 -122.56500 1187 ft 120 kts 298°
2026-05-08 02:22 45.57742 -122.57530 644 ft 113 kts 298°
2026-05-08 02:23 45.58092 -122.58501 215 ft 108 kts 302°
2026-05-08 02:23 45.58436 -122.59386 35 ft 92 kts 299°
2026-05-08 02:23 45.58712 -122.60100 70 ft 82 kts 301°
2026-05-08 02:23 45.58998 -122.60830 235 ft 83 kts 298°
2026-05-08 02:24 45.59228 -122.61546 474 ft 78 kts 295°
2026-05-08 02:24 45.59444 -122.62223 711 ft 72 kts 291°
2026-05-08 02:24 45.59580 -122.62891 832 ft 68 kts 277°
2026-05-08 02:24 45.59355 -122.63394 941 ft 68 kts 212°
2026-05-08 02:25 45.58873 -122.63604 1093 ft 75 kts 183°
2026-05-08 02:25 45.58473 -122.63226 1272 ft 77 kts 119°
2026-05-08 02:25 45.58143 -122.62500 1334 ft 99 kts 122°
2026-05-08 02:25 45.57744 -122.61652 1513 ft 104 kts 123°
2026-05-08 02:26 45.57313 -122.60794 1694 ft 106 kts 125°
2026-05-08 02:26 45.56896 -122.59935 1911 ft 105 kts 121°
2026-05-08 02:26 45.56546 -122.59043 2124 ft 104 kts 113°
2026-05-08 02:26 45.56243 -122.58077 2259 ft 110 kts 115°
2026-05-08 02:27 45.55853 -122.57058 2315 ft 120 kts 116°
2026-05-08 02:27 45.55494 -122.56012 2501 ft 115 kts 110°
2026-05-08 02:27 45.55373 -122.54873 2546 ft 117 kts 88°
2026-05-08 02:27 45.55649 -122.53938 2474 ft 99 kts 13°
2026-05-08 02:28 45.56314 -122.53689 2385 ft 95 kts 12°
2026-05-08 02:28 45.56894 -122.53659 2445 ft 78 kts 313°
2026-05-08 02:28 45.57086 -122.54476 2004 ft 100 kts 279°
2026-05-08 02:28 45.57222 -122.55466 1460 ft 105 kts 284°
2026-05-08 02:29 45.57421 -122.56448 995 ft 102 kts 289°
2026-05-08 02:29 45.57672 -122.57363 592 ft 99 kts 297°
2026-05-08 02:29 45.57980 -122.58220 228 ft 95 kts 298°
2026-05-08 02:29 45.58283 -122.58984 38 ft 78 kts 298°
2026-05-08 02:30 45.58482 -122.59501 29 ft 39 kts 301°
2026-05-08 02:30 45.58603 -122.59724 32 ft 24 kts 340°
2026-05-08 02:30 45.58684 -122.59731 31 ft 0 kts 332°
2026-05-08 02:32 45.58687 -122.59733 31 ft 1 kts 332°
2026-05-08 02:32 45.58725 -122.59803 32 ft 16 kts 302°
2026-05-08 02:32 45.58749 -122.59857 32 ft 0 kts 299°
2026-05-08 02:33 45.58768 -122.59917 31 ft 15 kts 283°
2026-05-08 02:33 45.58781 -122.59965 31 ft 0 kts 284°
2026-05-08 02:33 45.58784 -122.59988 31 ft 6 kts 273°
2026-05-08 02:34 45.58784 -122.59991 31 ft 0 kts 269°
2026-05-08 02:34 45.58784 -122.59995 31 ft 0 kts 268°
2026-05-08 02:36 45.58780 -122.60074 30 ft 20 kts 265°
2026-05-08 02:36 45.58806 -122.60342 26 ft 36 kts 305°
2026-05-08 02:36 45.58906 -122.60588 27 ft 14 kts 295°
2026-05-08 02:36 45.58916 -122.60629 27 ft 10 kts 274°
2026-05-08 02:37 45.58867 -122.60741 25 ft 9 kts 175°
2026-05-08 02:37 45.58782 -122.60613 24 ft 19 kts 118°
2026-05-08 02:37 45.58727 -122.60448 25 ft 15 kts 118°
2026-05-08 02:37 45.58648 -122.60241 27 ft 30 kts 119°
2026-05-08 02:38 45.58559 -122.60009 31 ft 24 kts 119°
2026-05-08 02:38 45.58455 -122.59894 29 ft 21 kts 190°
2026-05-08 02:38 45.58370 -122.59933 28 ft 10 kts 193°
2026-05-08 02:38 45.58300 -122.59948 26 ft 10 kts 158°
2026-05-08 02:39 45.58285 -122.59925 26 ft 0 kts 103°